Regional Weather Roundup
Issued by NWS

Home | Current Version | Previous Version | Graphics & Text | Print | Product List | Glossary On
Versions: 1 2 3 4 5 6 7 8 9 10 11 12 13 14 15 16 17 18 19 20 21 22 23 24 25 26 27 28 29 30 31 32 33 34 35 36 37 38 39 40 41 42 43 44 45 46 47 48 49 50
000
ASUS43 KDMX 172206
RWRIA

WEATHER ROUNDUP FOR IOWA
NATIONAL WEATHER SERVICE DES MOINES IA
400 PM CST SUN DEC 17 2017

NOTE: "FAIR" INDICATES FEW OR NO CLOUDS BELOW 12,000 FEET WITH NO
SIGNIFICANT WEATHER AND/OR OBSTRUCTIONS TO VISIBILITY.

* - THESE STATIONS ARE NOT NWS STATIONS...THUS NOT UNDER NWS
QUALITY CONTROL.  THEY ALSO DO NOT REPORT WEATHER SUCH
AS PRECIPITATION OR FOG.

IAZ001>003-012>014-020>022-031>034-043>046-172300-
   NORTHWEST IOWA

CITY           SKY/WX    TMP DP  RH WIND       PRES   REMARKS
CARROLL *      CLOUDY    32  28  86 N6        29.96R FOG     WCI  26
CHEROKEE *     CLOUDY    33  28  82 N5        29.96S HAZE    WCI  29
LE MARS *      CLOUDY    34  28  80 N5        29.95F WCI  30
ORANGE CITY *  CLOUDY    34  30  86 N3        29.95S
SHELDON *      MOCLDY    32  28  86 CALM      29.93F
SIOUX CITY     CLOUDY    35  28  75 N6        29.96F WCI  30
SPENCER        CLOUDY    33  27  78 N3        29.95S
STORM LAKE *   CLOUDY    32  27  80 NE3       29.95R
$$

IAZ055>058-069>071-079>083-090>094-172300-
   SOUTHWEST IOWA

CITY           SKY/WX    TMP DP  RH WIND       PRES   REMARKS
ATLANTIC *     PTCLDY    39  28  65 N7        29.94S WCI  34
AUDUBON *      MOCLDY    36  27  69 N5        29.95F WCI  32
CLARINDA *     CLOUDY    36  36 100 N3          N/A
COUNCIL BLFS * CLEAR     36  32  87 W6        29.97R WCI  31
CRESTON *      CLOUDY    37  34  87 NW6       29.96R WCI  33
HARLAN  *      CLOUDY    34  27  75 N7        29.98S WCI  28
LAMONI         CLOUDY    42  40  92 W6        29.96R
RED OAK *      MOCLDY    37  32  81 CALM      29.97R
SHENANDOAH *   CLOUDY    36  34  93 CALM      29.99R FOG
$$

IAZ047>049-059>061-072>074-084-172300-
   CENTRAL IOWA

CITY           SKY/WX    TMP DP  RH WIND       PRES   REMARKS
AMES           CLOUDY    38  30  73 NW5       29.95S WCI  34
ANKENY *       CLOUDY    37  30  75 CALM      29.97R
BOONE *        CLOUDY    37  30  75 N3        29.94R HAZE
CHARITON *     CLOUDY    39  37  93 W5        29.96R FOG
DES MOINES     CLOUDY    38  31  76 CALM      29.95S
GRINNELL*      CLOUDY    39  32  78 CALM      29.96R
KNOXVILLE *    CLOUDY    37  36  93 W5        29.95R WCI  34
MARSHALLTOWN   CLOUDY    37  30  75 E5        29.94S WCI  33
NEWTON *       CLOUDY    37  34  87 W3        29.95S
PELLA *        CLOUDY    37  35  90 CALM      29.97R
PERRY *        CLOUDY    36  28  70 NW5       29.95S WCI  32
$$

IAZ004>006-015-016-023>025-035-036-172300-
   NORTH CENTRAL IOWA

CITY           SKY/WX    TMP DP  RH WIND       PRES   REMARKS
ALGONA *       MOCLDY    32  30  93 CALM      29.95S
CLARION *      CLOUDY    32  32 100 NE3       29.96S FOG
ESTHERVILLE    CLOUDY    31  26  82 CALM      29.94S
FORT DODGE *   CLOUDY    31  28  89 N5        29.97R WCI  26
MASON CITY     CLOUDY    28  27  96 CALM      29.97R FOG
FOREST CITY *  CLOUDY    30  30 100 E3        29.95S FOG
WEBSTER CITY * CLOUDY    34  28  80 E3        29.93F
IOWA FALLS *   CLOUDY    34  30  85 CALM      29.97R
$$

IAZ007>011-017>019-026>030-037>042-050>054-066-172300-
   NORTHEAST IOWA

CITY           SKY/WX    TMP DP  RH WIND       PRES   REMARKS
CEDAR RAPIDS   CLOUDY    38  30  73 CALM      29.95R
CLINTON *      CLOUDY    41  31  67 CALM      29.97S
DECORAH *      CLOUDY    32  30  93 CALM      29.95S FOG
DUBUQUE        CLOUDY    34  30  85 E5        29.95F FOG     WCI  30
MONTICELLO *   CLOUDY    37  32  81 CALM      29.96R
OELWEIN *      CLOUDY    36  34  93 E3        29.95F FOG
WATERLOO       CLOUDY    35  30  82 NE6       29.95S HAZE    WCI  30
$$

IAZ064-065-067-068-078-172300-
   EAST CENTRAL IOWA

CITY           SKY/WX    TMP DP  RH WIND       PRES   REMARKS
DAVENPORT      CLOUDY    41  32  70 W3        29.99R
IOWA CITY      CLOUDY    40  34  79 CALM      29.99R
MT. PLEASANT * CLOUDY    42  42  98 CALM      29.98R
MUSCATINE *    CLOUDY    41  36  81 CALM      29.98R HAZE
QUAD CITIES    CLOUDY    44  33  65 W5        29.97R
$$

IAZ062-063-075>077-085>089-095>099-172300-
   SOUTHEAST IOWA

CITY           SKY/WX    TMP DP  RH WIND       PRES   REMARKS
BURLINGTON     CLOUDY    44  41  89 CALM      29.96S
FAIRFIELD *    MOCLDY    41  39  93 CALM      29.95F FOG
FORT MADISON * CLOUDY    45  41  87 CALM      29.98R
KEOKUK *       CLOUDY    46  41  81 S9        29.97R
OSKALOOSA *    CLOUDY    38  36  93 CALM      29.96S
OTTUMWA        CLOUDY    41  39  93 CALM      29.95S FOG
WASHINGTON *   CLOUDY    39  39 100 CALM      29.98S FOG
$$

ABBREVIATIONS USED IN REMARKS
   TC - TEMPERATURES IN CELSIUS
  WCI - WIND CHILL INDEX
   HX - HEAT INDEX
  VSB - VISIBILITY
$$





USA.gov is the U.S. government's official web portal to all federal, state and local government web resources and services.